Paris, IL

8:28 AM CDT on August 22, 2017 (GMT -0500)
Edgar County

Weather History for KPRG - March, 2014

Change the Weather History Date:

Wednesday, March 12, 2014

  Actual Average (KHUF) Record (KHUF)
Temperature  
Mean Temperature 33 °F -  
Max Temperature 40 °F 53 °F 77 °F (1990)
Min Temperature 24 °F 31 °F 7 °F (1960)
Degree Days  
Heating Degree Days 32    
Moisture  
Dew Point 29 °F    
Average Humidity 87    
Maximum Humidity 96    
Minimum Humidity 72    
Precipitation  
Precipitation 0.81 in - - ()
Sea Level Pressure  
Sea Level Pressure 29.81 in    
Wind  
Wind Speed 14 mph (North)    
Max Wind Speed 25 mph    
Max Gust Speed 34 mph    
Visibility 7 miles    
Events Rain , Snow , Thunderstorm    
Averages and records for this station are not official NWS values.
T = Trace of Precipitation, MM = Missing Value Source: NWS Daily Summary

Daily Weather History Graph

Daily Weather History Graph

Search for Another Location

Airport or City:

Trip Planner

Search our weather history database for the weather conditions in past years. The results will help you decide how hot, cold, wet, or windy it might be!

Date:

Astronomy

Mar. 12, 2014 Rise Set
Actual Time 7:06 AM CDT 6:54 PM CDT
Civil Twilight 6:40 AM CDT 7:21 PM CDT
Nautical Twilight 6:08 AM CDT 7:52 PM CDT
Astronomical Twilight 5:37 AM CDT 8:24 PM CDT
Moon 3:25 PM CDT (3/12) 4:37 AM CDT (3/12)
Length of Visible Light 12h 41m
Length of Day
11h 47m
Waxing Gibbous, 85% of the Moon is Illuminated
Mar 12
Waxing Gibbous
Mar 16
Full
Mar 23
Last Quarter
Mar 30
New
Apr 7
First Quarter

Hourly Weather History & Observations

Time (CDT) Temp. Windchill Dew Point Humidity Pressure Visibility Wind Dir Wind Speed Gust Speed Precip Events Conditions
12:15 AM 42.6 °F 35.6 °F 39.6 °F 89% 29.49 in 1.8 mi NNE 13.8 mph - 0.09 in Rain , Thunderstorm Heavy Thunderstorms and Rain
12:35 AM 41.9 °F 35.4 °F 39.2 °F 90% 29.49 in 5.0 mi NNE 11.5 mph 19.6 mph 0.13 in Rain , Thunderstorm Light Thunderstorms and Rain
12:55 AM 40.8 °F 32.6 °F 38.3 °F 91% 29.47 in 5.0 mi NNE 16.1 mph 20.7 mph 0.14 in Rain , Thunderstorm Light Thunderstorms and Rain
1:15 AM 40.6 °F 32.7 °F 38.5 °F 92% 29.47 in 5.0 mi NE 15.0 mph 20.7 mph N/A Rain , Thunderstorm Light Thunderstorms and Rain
1:35 AM 39.7 °F 31.5 °F 37.8 °F 93% 29.46 in 3.0 mi NNE 15.0 mph 23.0 mph 0.06 in Rain Rain
1:55 AM 39.2 °F 30.5 °F 37.4 °F 93% 29.45 in 1.8 mi NE 16.1 mph 19.6 mph 0.11 in Rain , Thunderstorm Heavy Thunderstorms and Rain
2:15 AM 39.2 °F 29.8 °F 37.4 °F 93% 29.43 in 4.0 mi NE 18.4 mph 24.2 mph 0.08 in Rain Rain
2:35 AM 39.2 °F 29.8 °F 37.4 °F 93% 29.43 in 2.5 mi NE 18.4 mph - 0.14 in Rain Heavy Rain
2:55 AM 38.8 °F 30.8 °F 37.4 °F 95% 29.44 in 3.0 mi NNE 13.8 mph 19.6 mph 0.20 in Rain Light Rain
3:15 AM 38.7 °F 30.5 °F 37.4 °F 95% 29.42 in 5.0 mi NNE 13.8 mph 20.7 mph 0.05 in Rain Light Rain
3:35 AM 38.7 °F 30.5 °F 37.4 °F 95% 29.43 in 4.0 mi NNE 13.8 mph 19.6 mph 0.10 in Rain , Thunderstorm Heavy Thunderstorms and Rain
3:55 AM 38.7 °F 30.1 °F 37.4 °F 95% 29.50 in 5.0 mi NW 15.0 mph 25.3 mph 0.17 in Rain Rain
4:15 AM 37.9 °F 27.3 °F 36.5 °F 95% 29.46 in 4.0 mi North 21.9 mph 31.1 mph 0.05 in Rain Rain
4:35 AM 36.5 °F 26.3 °F 35.1 °F 95% 29.48 in 10.0 mi North 18.4 mph 32.2 mph 0.10 in Rain Light Rain
4:55 AM 35.6 °F 25.5 °F 33.8 °F 93% 29.50 in 10.0 mi North 17.3 mph 24.2 mph 0.14 in Rain Light Rain
5:15 AM 35.2 °F 25.0 °F 33.3 °F 92% 29.50 in 10.0 mi North 17.3 mph 29.9 mph 0.02 in   Overcast
5:35 AM 35.6 °F 23.4 °F 33.8 °F 93% 29.51 in 10.0 mi North 25.3 mph 33.4 mph 0.04 in   Overcast
5:55 AM 35.1 °F 25.5 °F 33.1 °F 92% 29.53 in 7.0 mi North 15.0 mph 31.1 mph 0.05 in Rain Light Rain
6:15 AM 35.1 °F 24.8 °F 33.1 °F 92% 29.56 in 10.0 mi North 17.3 mph 31.1 mph N/A Rain Light Rain
6:35 AM 35.2 °F 25.0 °F 32.9 °F 91% 29.57 in 10.0 mi North 17.3 mph 29.9 mph N/A Rain Light Rain
6:55 AM 34.2 °F 23.0 °F 32.0 °F 92% 29.60 in 10.0 mi North 19.6 mph 34.5 mph N/A Rain Light Rain
7:15 AM 33.8 °F 23.2 °F 32.0 °F 93% 29.62 in 3.0 mi NNW 17.3 mph 31.1 mph N/A Rain Light Rain
7:35 AM 33.3 °F 22.5 °F 32.0 °F 95% 29.66 in 3.0 mi North 17.3 mph 31.1 mph N/A Snow Light Snow
7:55 AM 32.9 °F 22.0 °F 31.6 °F 95% 29.67 in 0.8 mi NNW 17.3 mph 26.5 mph N/A Snow Light Snow
8:15 AM 32.0 °F 20.5 °F 31.1 °F 96% 29.70 in 0.8 mi North 18.4 mph 28.8 mph N/A Snow Light Snow
8:35 AM 32.0 °F 20.5 °F 30.9 °F 96% 29.72 in 1.0 mi NNW 18.4 mph 29.9 mph N/A Snow Light Snow
8:55 AM 32.0 °F 22.5 °F 30.4 °F 94% 29.74 in 1.2 mi NNW 12.7 mph 20.7 mph N/A Snow Light Snow
9:15 AM 31.8 °F 21.0 °F 30.0 °F 93% 29.76 in 3.0 mi North 16.1 mph 24.2 mph N/A Snow Light Snow
9:35 AM 32.0 °F 21.6 °F 29.8 °F 92% 29.77 in 2.5 mi North 15.0 mph 21.9 mph N/A Snow Light Snow
9:55 AM 32.0 °F 20.8 °F 29.7 °F 91% 29.79 in 5.0 mi NNW 17.3 mph 26.5 mph N/A   Overcast
10:15 AM 31.6 °F 19.7 °F 28.2 °F 87% 29.81 in 10.0 mi NNW 19.6 mph 28.8 mph N/A   Overcast
10:35 AM 31.5 °F 20.5 °F 28.0 °F 87% 29.82 in 10.0 mi NNW 16.1 mph 24.2 mph N/A   Overcast
10:55 AM 32.0 °F 21.2 °F 27.5 °F 83% 29.83 in 10.0 mi North 16.1 mph 27.6 mph N/A   Overcast
11:15 AM 32.2 °F 21.4 °F 28.0 °F 85% 29.84 in 10.0 mi NNW 16.1 mph 24.2 mph N/A   Overcast
11:35 AM 32.4 °F 22.5 °F 28.0 °F 84% 29.85 in 10.0 mi NNW 13.8 mph 26.5 mph N/A   Overcast
11:55 AM 32.9 °F 22.4 °F 27.9 °F 82% 29.86 in 10.0 mi NNW 16.1 mph 26.5 mph N/A   Overcast
12:15 PM 33.8 °F 23.2 °F 28.4 °F 81% 29.87 in 10.0 mi North 17.3 mph 23.0 mph N/A   Overcast
12:35 PM 34.0 °F 22.1 °F 28.4 °F 80% 29.88 in 10.0 mi NW 21.9 mph 26.5 mph N/A   Overcast
12:55 PM 34.2 °F 23.0 °F 28.9 °F 81% 29.89 in 10.0 mi NNW 19.6 mph 25.3 mph N/A   Overcast
1:15 PM 34.7 °F 24.3 °F 28.8 °F 79% 29.90 in 10.0 mi NNW 17.3 mph 25.3 mph N/A   Overcast
1:35 PM 35.2 °F 25.0 °F 29.5 °F 80% 29.91 in 10.0 mi NW 17.3 mph 25.3 mph N/A   Overcast
1:55 PM 36.0 °F 24.7 °F 29.5 °F 77% 29.92 in 10.0 mi NNW 21.9 mph 27.6 mph N/A   Mostly Cloudy
2:15 PM 34.3 °F 22.6 °F 27.1 °F 75% 29.93 in 10.0 mi NNW 21.9 mph 27.6 mph N/A   Overcast
2:35 PM 34.0 °F 23.8 °F 26.2 °F 73% 29.94 in 10.0 mi NNW 16.1 mph 24.2 mph N/A   Overcast
2:55 PM 34.7 °F 25.1 °F 26.6 °F 72% 29.95 in 10.0 mi NNW 15.0 mph 24.2 mph N/A   Overcast
3:15 PM 32.7 °F 21.8 °F 27.7 °F 82% 29.95 in 5.0 mi NNW 17.3 mph 23.0 mph N/A   Haze
3:35 PM 32.5 °F 22.7 °F 27.0 °F 80% 29.96 in 7.0 mi NNW 13.8 mph 25.3 mph N/A Snow Light Snow
3:55 PM 33.3 °F 24.1 °F 26.2 °F 75% 29.97 in 10.0 mi NNW 12.7 mph 20.7 mph N/A   Overcast
4:15 PM 32.9 °F 22.8 °F 25.7 °F 75% 29.98 in 10.0 mi NNW 15.0 mph 20.7 mph N/A   Overcast
4:35 PM 32.4 °F 22.5 °F 26.1 °F 78% 29.99 in 10.0 mi NNW 13.8 mph 19.6 mph N/A   Overcast
4:55 PM 32.0 °F 24.2 °F 27.0 °F 82% 30.00 in 7.0 mi NNW 9.2 mph - N/A   Overcast
5:15 PM 31.6 °F 24.4 °F 27.1 °F 83% 30.01 in 7.0 mi NNW 8.1 mph - N/A   Overcast
5:35 PM 30.7 °F 24.1 °F 27.1 °F 86% 30.01 in 1.5 mi North 6.9 mph - N/A Snow Light Snow
5:55 PM 30.7 °F 27.3 °F 27.5 °F 88% 30.02 in 4.0 mi North 3.5 mph - N/A Snow Light Snow
6:15 PM 30.6 °F 23.1 °F 26.4 °F 85% 30.04 in 7.0 mi North 8.1 mph - N/A   Overcast
6:35 PM 30.0 °F 21.1 °F 25.2 °F 82% 30.05 in 5.0 mi North 10.4 mph 16.1 mph N/A Snow Light Snow
6:55 PM 29.1 °F 23.0 °F 25.3 °F 86% 30.06 in 7.0 mi North 5.8 mph - N/A Snow Light Snow
7:15 PM 28.4 °F - 25.2 °F 88% 30.07 in 10.0 mi Calm Calm - N/A   Overcast
7:35 PM 28.0 °F 22.8 °F 24.8 °F 88% 30.07 in 10.0 mi NNW 4.6 mph - N/A   Scattered Clouds
7:55 PM 28.0 °F 24.2 °F 24.8 °F 88% 30.08 in 10.0 mi NNW 3.5 mph - N/A   Mostly Cloudy
8:15 PM 28.2 °F 23.1 °F 25.0 °F 88% 30.08 in 10.0 mi NW 4.6 mph - N/A   Overcast
8:35 PM 27.9 °F 22.6 °F 24.8 °F 88% 30.08 in 10.0 mi NNW 4.6 mph - N/A   Scattered Clouds
8:55 PM 27.9 °F 22.6 °F 23.5 °F 84% 30.09 in 10.0 mi NNW 4.6 mph - N/A   Scattered Clouds
9:15 PM 27.7 °F 19.6 °F 22.8 °F 82% 30.10 in 10.0 mi NNW 8.1 mph - N/A   Scattered Clouds
9:35 PM 27.5 °F 20.2 °F 22.1 °F 80% 30.10 in 10.0 mi NNW 6.9 mph - N/A   Clear
9:55 PM 27.5 °F 22.2 °F 22.1 °F 80% 30.11 in 10.0 mi NNW 4.6 mph - N/A   Scattered Clouds
10:15 PM 26.4 °F 20.9 °F 23.0 °F 87% 30.11 in 10.0 mi NNE 4.6 mph - N/A   Scattered Clouds
10:35 PM 25.7 °F - 22.6 °F 88% 30.11 in 10.0 mi Calm Calm - N/A   Scattered Clouds
10:55 PM 25.2 °F 19.5 °F 21.9 °F 87% 30.12 in 10.0 mi North 4.6 mph - N/A   Scattered Clouds
11:15 PM 24.6 °F - 21.4 °F 87% 30.12 in 10.0 mi Calm Calm - N/A   Mostly Cloudy
11:35 PM 24.3 °F - 21.0 °F 87% 30.12 in 10.0 mi Calm Calm - N/A   Overcast
11:55 PM 24.3 °F - 20.8 °F 87% 30.12 in 10.0 mi Calm Calm - N/A   Overcast